Wind_Speed
5 4 4 3 2 1 2 3 6 8 9 9 8 8 8 9 10 9 10 9 9 9 10 10 10 11 10 9 10 10 10 11 12 12 12 12 13 13 13 13 13 13 12 12 13 13 13 13 13
5 5 5 3 1 2 3 4 7 10 9 9 9 9 10 9 10 11 10 10 10 10 11 11 11 11 10 10 11 11 12 12 13 14 14 15 14 14 14 15 15 14 14 14 14 14 14 14 14
5 5 4 3 3 4 4 7 9 11 10 9 10 9 11 10 10 11 11 11 11 10 11 12 12 12 11 12 12 13 14 14 15 16 16 16 16 16 16 17 16 16 16 16 16 16 16 16 15
6 4 3 2 6 6 7 9 7 10 10 10 10 10 11 12 11 11 11 11 11 10 12 13 13 13 13 13 14 15 15 16 16 17 17 17 17 18 18 18 18 18 17 17 17 18 18 17 17
7 4 2 6 7 6 9 11 7 9 9 12 11 10 12 12 11 12 12 12 13 12 13 14 14 14 14 15 16 16 17 17 17 18 18 18 18 18 19 19 19 19 19 19 19 19 20 19 19
7 5 3 9 7 6 10 10 10 8 10 12 12 11 11 12 12 12 13 13 14 14 15 16 16 16 17 17 18 18 18 19 19 19 19 19 19 19 19 19 20 20 20 20 20 20 21 21 20
7 5 5 7 8 8 10 10 12 10 11 13 13 13 13 13 14 14 14 15 16 16 17 17 17 18 18 19 20 20 20 20 21 21 21 21 21 20 19 20 20 20 20 21 21 21 22 22 21
5 5 3 7 9 10 10 11 12 13 13 14 14 14 14 14 14 14 15 17 17 17 18 18 19 19 19 20 22 21 22 21 21 21 21 22 21 21 21 21 21 22 22 22 23 23 23 23 22
4 4 4 8 10 10 10 12 12 13 14 14 14 15 15 15 15 15 16 17 18 18 18 20 19 20 21 21 21 22 22 22 22 21 22 22 23 22 22 23 23 23 23 24 24 24 24 23 22
2 3 7 10 11 11 11 13 12 12 12 14 14 15 16 16 17 17 17 17 18 19 19 20 22 22 21 22 21 22 22 23 23 23 23 23 23 24 24 24 24 24 24 24 25 25 25 23 22
4 6 9 10 11 10 10 12 12 12 12 14 15 15 17 17 17 17 18 19 20 21 21 22 23 23 23 23 23 23 23 23 23 23 25 25 24 24 24 24 25 25 24 23 24 24 24 24 24
5 8 9 10 10 10 10 11 12 13 14 16 17 16 18 19 18 17 18 20 21 21 23 24 24 24 24 24 24 24 24 24 24 24 25 26 25 25 25 25 25 26 26 25 24 24 24 24 24
5 8 8 9 10 10 10 11 12 13 14 16 18 18 17 17 18 19 20 21 22 23 24 24 24 24 24 24 25 24 25 25 26 26 26 26 26 26 26 25 26 26 27 28 27 25 25 24 24
5 6 7 8 11 12 12 13 13 13 14 16 17 17 18 18 19 20 22 22 22 24 25 24 24 24 24 24 25 25 25 26 26 27 27 27 27 26 26 26 26 27 27 28 28 27 25 25 25
3 6 6 9 11 13 13 14 15 13 15 17 18 18 19 19 20 20 21 23 24 25 24 25 25 24 25 25 26 26 26 26 27 28 28 28 27 27 26 26 26 27 28 28 27 26 27 26 26
5 8 9 9 12 13 15 16 16 15 16 18 19 18 18 20 21 21 22 23 25 25 26 26 25 26 26 26 26 27 27 27 27 28 28 28 27 27 27 26 26 26 26 26 25 25 26 27 27
7 9 9 12 12 12 15 16 17 17 17 19 20 20 20 22 22 22 23 23 24 25 26 26 27 27 26 26 27 27 27 27 27 28 27 28 27 27 26 25 24 25 24 24 24 24 24 25 25
9 8 9 12 13 14 15 17 18 19 19 20 21 22 22 23 23 23 24 25 25 26 26 27 28 28 27 26 27 27 27 27 27 28 27 27 26 26 25 25 25 25 25 24 24 24 24 24 24
11 9 11 13 14 14 16 17 18 19 20 20 21 22 22 23 23 24 25 26 26 26 27 26 27 27 27 27 28 27 27 27 27 27 26 25 25 24 25 25 25 25 25 24 24 24 24 24 24
10 10 12 13 14 14 16 18 19 19 20 21 21 22 23 23 24 25 25 26 26 26 27 26 26 27 27 28 28 28 27 28 27 27 26 25 25 25 25 25 25 25 24 23 23 23 24 24 24
11 11 12 14 15 16 16 19 20 20 20 22 22 23 25 25 26 26 26 26 26 26 27 26 26 27 28 28 27 27 27 26 26 25 24 23 23 23 23 24 23 23 23 23 23 23 24 24 24
12 12 13 14 15 14 14 17 19 21 23 22 24 26 27 27 28 28 27 27 28 27 27 27 27 27 26 26 26 27 26 25 24 23 23 22 22 23 23 23 23 22 22 23 23 24 24 24 24
11 12 13 12 12 12 13 16 20 22 23 25 27 27 26 28 28 28 28 28 28 28 27 27 27 26 25 25 26 26 25 24 24 23 22 22 22 22 22 22 22 22 23 23 24 25 25 25 25
12 12 12 10 10 12 13 17 20 22 23 25 25 26 26 26 27 28 28 28 27 26 26 26 24 24 24 25 25 25 23 23 23 22 22 22 22 22 22 22 23 23 23 24 24 24 24 25 25
12 13 12 10 11 12 13 16 18 20 23 24 25 26 26 27 27 27 26 25 25 25 25 24 24 24 24 24 24 24 22 22 22 21 21 21 21 22 22 22 22 23 23 23 23 24 25 26 26
12 12 13 12 12 12 13 15 19 21 22 23 24 25 25 24 25 25 24 24 23 23 23 23 23 24 24 24 23 22 21 20 20 20 20 20 20 21 21 21 21 22 23 22 23 24 25 26 26
13 13 13 13 11 11 13 16 19 19 20 22 23 23 23 23 23 23 23 22 22 22 22 22 22 23 23 23 21 20 20 19 19 19 20 20 19 19 20 21 21 22 22 22 22 23 24 25 25
13 13 13 12 13 13 14 16 18 19 19 21 22 22 23 22 22 22 21 21 21 21 21 22 22 21 21 20 19 19 19 18 19 18 18 18 18 19 19 20 21 21 21 21 21 22 23 24 24
13 14 14 12 12 14 15 16 18 19 21 21 22 22 23 22 21 21 21 21 21 21 21 21 21 21 20 19 18 17 16 16 17 17 17 17 17 17 18 19 20 20 20 20 21 22 22 22 22
14 14 15 14 12 12 15 17 19 20 20 21 21 22 22 21 21 20 20 21 20 21 20 20 20 20 19 17 16 15 15 15 16 16 15 16 16 16 17 19 19 19 19 20 20 20 21 21 22
Wind_Direction
180 160 159 156 122 96 191 194 237 243 253 257 258 257 264 270 277 282 291 299 304 298 297 295 292 291 287 288 289 292 290 290 291 291 290 289 290 291 291 290 290 289 287 285 283 281 277 274 273
184 183 185 168 53 265 257 245 247 250 261 267 262 261 270 277 286 286 287 296 299 295 295 294 292 287 287 289 289 289 289 289 290 290 289 287 286 286 288 289 289 289 288 288 285 282 280 277 275
191 197 190 172 250 263 269 255 245 254 261 270 271 273 276 278 285 290 292 294 295 293 293 294 294 292 293 293 291 291 291 291 291 288 287 287 285 286 289 289 289 288 288 288 287 283 282 281 278
197 196 166 192 247 260 261 252 239 254 266 270 272 277 281 282 282 290 296 299 296 294 296 296 296 298 298 296 294 291 292 293 292 289 287 287 287 286 288 289 289 288 287 289 288 285 284 283 280
208 195 170 258 246 262 272 267 260 262 271 273 278 281 280 284 284 288 293 296 295 297 297 297 296 296 297 297 295 293 294 294 292 291 289 287 287 287 287 287 287 287 287 288 287 286 285 283 282
207 186 230 257 253 252 265 273 270 267 273 276 285 286 287 288 292 293 295 298 295 296 296 295 296 296 298 299 297 295 295 294 294 292 290 287 287 287 287 286 286 285 285 285 286 286 285 282 281
203 182 226 258 266 262 272 270 270 266 271 277 282 284 287 287 291 293 294 295 294 295 296 295 299 298 298 301 300 297 297 297 296 294 292 289 288 287 287 286 286 284 285 285 285 284 282 280 279
195 177 231 259 262 264 274 277 277 273 276 281 280 281 282 287 291 292 292 293 294 298 298 297 298 297 298 301 300 299 301 299 297 295 294 291 289 287 286 285 284 283 284 284 284 283 282 279 277
182 176 227 242 253 259 268 278 277 282 281 283 282 281 286 286 290 295 293 295 298 299 298 300 299 298 299 300 301 302 303 301 299 297 296 293 291 288 287 286 285 284 283 282 282 282 282 279 275
201 226 235 237 247 259 267 275 278 280 278 281 286 287 289 288 289 293 295 296 298 300 301 301 301 301 302 303 303 303 302 301 299 298 299 296 292 290 289 288 287 286 285 284 284 282 281 278 275
248 255 251 248 247 257 270 275 274 276 284 280 281 288 290 292 291 292 294 294 295 297 299 301 303 303 304 305 305 304 303 301 300 299 300 299 296 291 290 290 288 286 286 286 286 286 283 279 277
260 270 264 265 262 260 271 284 275 273 280 281 283 287 292 294 295 293 292 293 294 294 297 298 301 303 303 304 304 304 302 301 301 301 300 300 299 293 292 292 289 287 285 287 288 288 285 283 280
266 279 277 280 281 278 284 290 285 280 283 287 287 289 295 294 297 295 293 292 294 294 296 299 300 300 299 301 303 303 302 301 301 302 302 301 302 298 294 293 291 290 289 288 289 291 287 285 284
252 277 286 288 286 286 292 292 294 294 291 291 291 293 293 295 296 295 295 294 294 295 295 300 300 299 298 299 301 301 301 300 301 302 302 302 301 300 298 296 294 292 292 291 288 288 286 285 284
303 289 287 298 297 298 297 289 294 296 294 293 295 297 297 296 295 294 293 294 295 296 295 300 297 299 300 299 299 300 301 301 301 302 301 301 300 300 298 296 295 294 292 292 289 287 286 286 285
316 294 287 290 294 300 301 295 295 294 295 296 297 303 300 297 298 296 294 295 297 297 297 298 296 296 298 298 300 301 300 300 301 301 301 300 299 300 299 297 296 295 294 294 292 290 288 286 284
291 280 286 290 288 287 293 294 295 292 290 295 296 301 300 299 299 297 298 298 297 298 296 298 296 297 298 299 300 300 300 299 299 299 300 299 298 299 299 298 298 296 296 295 295 293 291 289 286
284 280 281 283 284 280 285 292 294 294 295 297 298 301 299 299 300 301 302 301 300 299 297 300 298 299 299 298 297 298 299 300 300 299 299 299 298 298 298 298 298 299 297 295 294 294 293 292 289
276 278 281 285 286 286 290 293 295 296 294 294 298 300 300 300 301 301 302 303 303 303 302 301 300 299 298 297 296 297 298 299 301 300 298 296 295 296 297 299 299 299 298 296 295 295 295 294 291
291 282 276 274 278 283 288 292 293 294 293 296 300 302 302 302 302 302 303 304 304 303 302 301 299 299 300 300 298 298 299 299 299 298 296 294 294 295 297 298 297 297 298 298 296 296 298 296 293
298 289 289 289 289 292 291 294 290 295 293 299 302 304 304 303 304 305 304 304 303 304 302 301 299 299 299 299 298 299 299 298 299 298 296 295 295 295 296 296 296 297 297 297 297 298 298 297 295
302 294 293 292 293 297 297 294 295 293 297 301 305 305 304 303 304 306 306 305 304 304 304 303 302 300 299 299 298 299 300 298 297 296 296 295 294 293 295 294 296 297 298 299 299 299 299 296 295
306 309 307 305 299 293 289 287 289 294 299 303 305 306 305 304 304 307 308 306 305 305 306 305 303 301 302 300 300 300 298 297 296 295 296 295 294 296 295 295 295 298 299 299 300 299 299 296 295
308 309 311 311 301 286 279 280 287 294 301 303 306 306 307 306 307 308 308 305 305 305 306 306 305 304 302 301 300 299 298 296 295 294 294 294 294 295 297 297 298 300 301 300 300 299 298 296 296
311 312 312 312 302 296 294 289 287 298 302 306 308 309 310 310 311 312 312 310 309 307 306 307 305 304 303 303 302 300 297 296 296 295 294 295 296 297 298 300 301 302 302 302 300 300 299 297 295
310 314 312 307 305 305 303 293 295 302 307 310 312 314 315 315 316 316 316 317 317 315 312 310 309 310 309 306 303 302 300 298 297 298 298 298 299 300 301 302 304 303 303 303 301 300 301 299 297
314 312 308 305 307 303 295 296 300 302 307 313 316 316 317 319 320 321 320 320 320 321 321 319 318 316 313 310 308 306 303 300 301 300 300 299 298 301 302 303 303 305 304 304 303 302 302 301 299
317 311 309 308 312 309 305 302 300 305 313 316 319 319 321 321 321 320 323 322 323 324 324 324 321 318 316 314 310 308 306 303 303 303 304 300 300 303 303 303 305 307 307 306 304 303 303 304 303
316 317 315 312 307 308 311 305 305 311 316 319 322 323 323 322 323 324 324 323 324 324 325 327 325 323 320 317 314 314 313 311 312 311 308 304 304 306 306 307 310 310 310 309 308 307 307 308 306
314 316 320 313 310 313 313 310 311 314 315 320 325 326 325 323 326 326 326 327 327 327 327 327 328 328 326 324 321 320 318 318 316 316 314 310 310 312 311 310 312 313 315 315 315 312 310 309 307
Height
5877 5877 5878 5879 5880 5881 5881 5883 5882 5882 5881 5880 5880 5880 5880 5880 5880 5881 5878 5875 5876 5876 5875 5875 5874 5874 5873 5873 5872 5872 5871 5871 5870 5869 5869 5868 5867 5866 5866 5865 5864 5863 5862 5862 5862 5861 5861 5860 5860
5876 5877 5878 5878 5879 5880 5881 5881 5881 5880 5879 5878 5879 5879 5878 5878 5878 5877 5876 5874 5875 5874 5874 5873 5873 5872 5872 5871 5871 5870 5869 5869 5868 5867 5866 5865 5865 5864 5863 5862 5861 5860 5860 5859 5859 5858 5858 5858 5858
5875 5876 5877 5877 5879 5880 5881 5881 5880 5878 5877 5877 5877 5877 5877 5876 5876 5875 5874 5873 5873 5873 5872 5871 5871 5871 5870 5870 5869 5868 5867 5866 5865 5865 5864 5863 5862 5861 5860 5859 5859 5858 5857 5856 5856 5855 5855 5854 5854
5874 5876 5876 5878 5880 5880 5879 5879 5876 5877 5876 5875 5875 5875 5875 5875 5874 5874 5873 5872 5871 5872 5871 5870 5869 5869 5868 5867 5867 5866 5865 5863 5862 5862 5861 5860 5859 5858 5857 5856 5855 5854 5853 5853 5852 5852 5851 5851 5851
5872 5874 5875 5878 5878 5878 5877 5876 5875 5875 5875 5873 5873 5873 5873 5872 5872 5871 5871 5870 5869 5870 5869 5868 5867 5866 5865 5865 5864 5863 5862 5861 5860 5859 5858 5857 5856 5855 5854 5853 5852 5851 5850 5849 5848 5848 5847 5847 5847
5871 5871 5875 5877 5877 5877 5875 5874 5874 5874 5873 5872 5872 5872 5870 5870 5870 5870 5869 5868 5867 5867 5866 5865 5865 5864 5862 5862 5861 5860 5859 5858 5857 5855 5854 5853 5852 5851 5850 5849 5848 5847 5846 5845 5844 5843 5843 5842 5842
5870 5871 5873 5875 5875 5874 5874 5873 5872 5872 5871 5871 5870 5869 5869 5869 5868 5868 5867 5866 5865 5864 5863 5862 5861 5860 5859 5858 5858 5857 5855 5854 5853 5852 5850 5849 5848 5847 5846 5845 5844 5843 5842 5841 5840 5839 5838 5838 5838
5868 5870 5872 5874 5874 5873 5873 5870 5869 5869 5869 5868 5868 5867 5866 5867 5866 5866 5865 5864 5862 5861 5860 5859 5858 5857 5856 5854 5853 5852 5851 5850 5849 5848 5846 5845 5843 5842 5841 5840 5839 5838 5837 5836 5835 5834 5833 5833 5832
5867 5869 5870 5872 5872 5871 5871 5868 5867 5866 5866 5866 5865 5865 5864 5864 5863 5863 5862 5861 5860 5858 5857 5856 5855 5854 5853 5851 5850 5848 5847 5845 5844 5843 5842 5840 5838 5837 5836 5835 5834 5833 5832 5831 5830 5829 5828 5827 5827
5867 5868 5869 5870 5869 5869 5868 5867 5866 5864 5864 5864 5863 5861 5861 5861 5861 5861 5860 5859 5857 5855 5853 5853 5852 5850 5849 5847 5846 5844 5843 5841 5839 5838 5836 5835 5833 5832 5831 5830 5828 5827 5826 5825 5824 5823 5822 5822 5822
5866 5867 5867 5867 5866 5866 5866 5865 5864 5863 5863 5862 5861 5859 5859 5859 5858 5858 5857 5856 5855 5853 5851 5850 5849 5846 5845 5843 5842 5840 5838 5837 5835 5833 5831 5829 5828 5826 5825 5824 5823 5822 5820 5819 5818 5817 5817 5816 5816
5866 5865 5865 5865 5864 5863 5863 5862 5861 5861 5861 5859 5858 5857 5857 5856 5855 5854 5854 5853 5851 5849 5848 5846 5845 5843 5841 5839 5838 5836 5834 5832 5830 5828 5826 5824 5823 5821 5819 5818 5817 5815 5814 5813 5812 5812 5811 5811 5810
5865 5864 5864 5863 5862 5861 5861 5860 5859 5858 5858 5857 5856 5854 5854 5853 5852 5851 5851 5849 5848 5845 5843 5841 5840 5838 5837 5835 5833 5831 5829 5827 5825 5823 5821 5819 5817 5815 5813 5812 5811 5809 5808 5807 5806 5806 5805 5805 5805
5863 5862 5861 5861 5860 5859 5859 5858 5857 5856 5855 5854 5853 5852 5851 5850 5849 5848 5847 5845 5844 5842 5840 5836 5835 5834 5832 5831 5829 5826 5824 5822 5820 5818 5816 5814 5812 5810 5808 5806 5805 5804 5802 5801 5801 5800 5799 5798 5799
5861 5861 5860 5859 5859 5857 5857 5855 5854 5853 5853 5851 5850 5849 5848 5847 5845 5844 5843 5841 5840 5838 5834 5832 5831 5829 5828 5826 5824 5822 5819 5817 5815 5813 5811 5809 5807 5805 5803 5801 5799 5798 5796 5795 5795 5794 5793 5793 5793
5860 5859 5858 5858 5858 5856 5856 5853 5851 5850 5850 5849 5847 5845 5844 5843 5842 5840 5839 5837 5835 5833 5831 5828 5826 5825 5822 5820 5818 5816 5814 5812 5810 5808 5806 5803 5801 5799 5797 5795 5793 5792 5790 5790 5789 5788 5787 5787 5786
5859 5858 5858 5858 5856 5855 5854 5852 5850 5848 5847 5846 5844 5842 5841 5839 5837 5836 5834 5833 5831 5829 5826 5823 5821 5819 5817 5815 5813 5811 5809 5807 5805 5803 5800 5798 5796 5794 5792 5790 5788 5786 5785 5785 5784 5783 5782 5781 5780
5856 5856 5856 5856 5855 5853 5851 5850 5847 5845 5844 5843 5841 5839 5837 5835 5834 5832 5830 5828 5826 5824 5821 5818 5816 5814 5812 5810 5808 5805 5804 5801 5799 5797 5794 5792 5790 5788 5786 5785 5783 5781 5780 5780 5779 5778 5776 5776 5774
5856 5855 5854 5853 5851 5850 5849 5847 5846 5843 5841 5840 5838 5836 5834 5832 5830 5828 5825 5823 5821 5818 5816 5813 5811 5808 5807 5804 5802 5799 5797 5795 5793 5791 5789 5786 5785 5783 5781 5780 5778 5777 5776 5775 5774 5773 5771 5770 5769
5854 5853 5852 5851 5850 5848 5847 5845 5842 5839 5837 5835 5833 5831 5829 5827 5825 5823 5821 5818 5816 5813 5811 5808 5806 5803 5801 5798 5796 5793 5791 5789 5787 5785 5783 5781 5779 5778 5776 5775 5773 5772 5770 5769 5769 5767 5766 5764 5763
5852 5850 5850 5848 5846 5844 5844 5842 5838 5835 5832 5830 5829 5828 5826 5823 5821 5818 5815 5813 5810 5808 5805 5803 5800 5798 5795 5792 5790 5787 5785 5783 5781 5779 5778 5776 5774 5773 5771 5770 5768 5766 5765 5764 5763 5762 5760 5759 5757
5849 5848 5846 5845 5844 5842 5841 5839 5835 5831 5828 5827 5826 5824 5821 5818 5815 5812 5808 5807 5804 5802 5799 5797 5794 5791 5789 5786 5784 5781 5779 5777 5775 5774 5772 5771 5769 5768 5766 5765 5763 5761 5760 5759 5758 5756 5754 5753 5751
5848 5846 5844 5842 5841 5840 5838 5836 5832 5828 5826 5824 5822 5819 5816 5813 5809 5806 5803 5801 5798 5796 5793 5790 5787 5784 5782 5780 5777 5775 5773 5771 5769 5768 5767 5765 5764 5763 5761 5760 5758 5756 5755 5753 5752 5750 5748 5746 5745
5845 5843 5842 5840 5838 5837 5835 5833 5829 5826 5824 5822 5818 5815 5811 5808 5804 5801 5798 5795 5792 5789 5787 5784 5781 5778 5776 5773 5771 5769 5766 5765 5763 5762 5761 5760 5759 5757 5756 5754 5752 5751 5749 5747 5745 5744 5742 5740 5738
5843 5841 5839 5838 5837 5835 5833 5830 5827 5824 5821 5819 5815 5811 5807 5803 5799 5796 5792 5789 5787 5784 5781 5778 5776 5773 5769 5767 5765 5762 5760 5759 5757 5756 5755 5754 5753 5751 5750 5748 5746 5744 5743 5741 5739 5737 5736 5734 5731
5840 5839 5837 5835 5834 5832 5830 5827 5824 5821 5819 5816 5812 5808 5803 5798 5795 5791 5788 5785 5782 5779 5776 5773 5770 5766 5762 5761 5758 5756 5754 5753 5752 5751 5750 5748 5747 5746 5744 5742 5740 5738 5736 5734 5733 5731 5729 5726 5724
5838 5836 5834 5832 5831 5830 5828 5823 5819 5817 5815 5812 5808 5804 5800 5796 5792 5788 5784 5781 5778 5775 5772 5768 5765 5762 5758 5755 5752 5751 5749 5748 5746 5746 5744 5743 5742 5741 5739 5737 5735 5733 5730 5728 5726 5724 5722 5719 5717
5836 5833 5832 5830 5828 5827 5825 5821 5817 5813 5810 5808 5805 5801 5797 5793 5789 5785 5781 5778 5775 5772 5768 5765 5761 5757 5754 5751 5748 5746 5745 5743 5742 5741 5739 5738 5737 5736 5734 5732 5730 5727 5725 5722 5720 5718 5715 5713 5710
5834 5832 5829 5827 5826 5824 5821 5819 5814 5811 5808 5805 5801 5797 5793 5789 5786 5782 5778 5775 5772 5768 5765 5762 5758 5754 5751 5747 5744 5742 5741 5739 5738 5737 5735 5734 5732 5731 5729 5727 5724 5722 5719 5717 5714 5711 5709 5707 5704
5831 5829 5827 5825 5823 5821 5819 5817 5811 5808 5805 5802 5798 5795 5790 5786 5783 5779 5775 5772 5769 5766 5762 5759 5755 5752 5748 5745 5741 5740 5738 5737 5735 5733 5731 5730 5728 5727 5725 5722 5719 5716 5714 5711 5709 5706 5703 5701 5698